Buckley Air Force Base Aurora US
ICAO: KBKF
IATA: BFK
Category: Medium
Scheduled Services: No

Elevation: 5662 ft
TransAlt. 18000 ft.

Airport Communications:
DENVER APP/DEP:128.45
ATIS:119.675
GND/CLNC DEL:121.6
PMSV METRO:22.845
PTD:37.22
TWR:121

KBKF Zoom In..

If you have problems with the map follow the link
https://www.worldairports.se/pages/airport.php?
ICAO=KBKF

Runways:

(A) RW 14 length 11006 ft width 150 ft
---- / hdg 140

(B) RW 32 length 11006 ft width 150 ft
ILS 109.70 / hdg 320

Location; KBKF
Day. 21 / Time. 04.58 Zulu
* Altimeter: 30.29
* Temperature: 09° c. 48.2°f.
* Wind from: 190° Speed 10 kn.
Dewpoint: -05° c.
Visibility: 10 Statute Miles.
Clouds: Clear (automated report).

KBKF 210458Z 19010KT 10SM CLR 09/M05 A3029 RMK AO2A SLP217 T00891054


Wind From 190°
Speed 10 kn.

 
 
jpsmedia.com for Web Design worldairports.se 2018   terms of use